User: anonymous   Login
Location: Gesvres
(49.0440°N, 2.8518°E)
Time: 23:25:50
(UTC+00:00)
Language:

CZ-4B R/B - Orbit

View from above orbital plane
View from above orbital plane
View from above satellite
View from above satellite

Ground track
Ground track

The orbit data is extracted from the following two-line orbital elements,

1 27432U 02024C   24104.72206800  .00000061  00000-0  55011-4 0  9995
2 27432  98.9828 146.7111 0050172 192.3910 276.3531 14.14298400130997
Epoch (UTC): 13 April 2024 17:19:46
Eccentricity: 0.0050172
inclination: 98.9828°
perigee height: 808 km
apogee height: 881 km
right ascension of ascending node: 146.7111°
argument of perigee: 192.3910°
revolutions per day: 14.14298400
mean anomaly at epoch: 276.3531°
orbit number at epoch: 13099

The dashed part of the orbit path shows where the satellite is in the earth's shadow,  

DLR